Meteo pe oră la Almalyk

Astăzi, 20 Aprilie, Marţi

Timp Temperatura Precipitaţii Vânt Presiune Umiditate
00:00 +15°C° 0 mm 2 m/s 685 mmHg 45%
01:00 +14°C° 0 mm 2 m/s 685 mmHg 45%
02:00 +14°C° 0 mm 2 m/s 684 mmHg 45%
03:00 +14°C° 0 mm 2 m/s 684 mmHg 45%
04:00 +13°C° 0 mm 2 m/s 684 mmHg 44%
05:00 +13°C° 0 mm 2 m/s 684 mmHg 43%
06:00 +15°C° 0 mm 2 m/s 685 mmHg 42%
07:00 +16°C° 0 mm 1 m/s 685 mmHg 40%
08:00 +18°C° 0 mm 1 m/s 686 mmHg 39%
09:00 +20°C° 0 mm 1 m/s 686 mmHg 37%
10:00 +20°C° 0 mm 2 m/s 686 mmHg 34%
11:00 +21°C° 0 mm 3 m/s 686 mmHg 32%
12:00 +22°C° 0 mm 3 m/s 686 mmHg 31%
13:00 +22°C° 0 mm 3 m/s 685 mmHg 30%
14:00 +23°C° 0 mm 4 m/s 685 mmHg 30%
15:00 +21°C° 0.1 mm 4 m/s 685 mmHg 37%
16:00 +19°C° 0.1 mm 4 m/s 685 mmHg 44%
17:00 +18°C° 0.1 mm 4 m/s 685 mmHg 51%
18:00 +17°C° 0.1 mm 4 m/s 685 mmHg 56%
19:00 +14°C° 0.1 mm 4 m/s 685 mmHg 62%
20:00 +13°C° 0.1 mm 3 m/s 684 mmHg 67%
21:00 +13°C° 0 mm 3 m/s 684 mmHg 67%
22:00 +13°C° 0 mm 2 m/s 684 mmHg 68%
23:00 +13°C° 0 mm 2 m/s 684 mmHg 68%

Mâine, 21 Aprilie, Miercuri

Timp Temperatura Precipitaţii Vânt Presiune Umiditate
00:00 +13°C° 0.4 mm 2 m/s 684 mmHg 72%
01:00 +13°C° 0.4 mm 2 m/s 684 mmHg 76%
02:00 +13°C° 0.4 mm 2 m/s 684 mmHg 80%
03:00 +12°C° 1.8 mm 2 m/s 684 mmHg 83%
04:00 +11°C° 1.8 mm 3 m/s 684 mmHg 86%
05:00 +11°C° 1.8 mm 3 m/s 684 mmHg 89%
06:00 +10°C° 3.4 mm 3 m/s 685 mmHg 89%
07:00 +10°C° 3.4 mm 3 m/s 685 mmHg 90%
08:00 +10°C° 3.4 mm 3 m/s 685 mmHg 91%
09:00 +8°C° 3.3 mm 4 m/s 686 mmHg 89%
10:00 +8°C° 3.3 mm 4 m/s 686 mmHg 88%
11:00 +7°C° 3.3 mm 4 m/s 687 mmHg 86%
12:00 +9°C° 1.2 mm 3 m/s 687 mmHg 86%
13:00 +9°C° 1.2 mm 3 m/s 687 mmHg 85%
14:00 +9°C° 1.2 mm 3 m/s 687 mmHg 85%
15:00 +10°C° 0.3 mm 3 m/s 687 mmHg 83%
16:00 +10°C° 0.3 mm 2 m/s 687 mmHg 81%
17:00 +10°C° 0.3 mm 2 m/s 687 mmHg 79%
18:00 +10°C° 0.3 mm 2 m/s 688 mmHg 81%
19:00 +9°C° 0.3 mm 2 m/s 688 mmHg 83%
20:00 +9°C° 0.3 mm 2 m/s 688 mmHg 86%
21:00 +9°C° 0.1 mm 2 m/s 688 mmHg 85%
22:00 +8°C° 0.1 mm 2 m/s 688 mmHg 85%
23:00 +8°C° 0.1 mm 2 m/s 688 mmHg 85%

Poimâine, 22 Aprilie, Joi

Timp Temperatura Precipitaţii Vânt Presiune Umiditate
00:00 +8°C° 0 mm 2 m/s 689 mmHg 84%
01:00 +8°C° 0 mm 2 m/s 689 mmHg 83%
02:00 +8°C° 0 mm 2 m/s 689 mmHg 82%
03:00 +8°C° 0.1 mm 2 m/s 689 mmHg 82%
04:00 +8°C° 0.1 mm 2 m/s 689 mmHg 81%
05:00 +8°C° 0.1 mm 2 m/s 690 mmHg 80%
06:00 +9°C° 0.1 mm 2 m/s 690 mmHg 76%
07:00 +11°C° 0.1 mm 1 m/s 690 mmHg 72%
08:00 +12°C° 0.1 mm 1 m/s 691 mmHg 68%
09:00 +13°C° 0.3 mm 1 m/s 691 mmHg 63%
10:00 +14°C° 0.3 mm 2 m/s 691 mmHg 58%
11:00 +14°C° 0.3 mm 3 m/s 691 mmHg 52%
12:00 +16°C° 0.1 mm 3 m/s 691 mmHg 48%
13:00 +16°C° 0.1 mm 3 m/s 691 mmHg 44%
14:00 +17°C° 0.1 mm 3 m/s 691 mmHg 40%
15:00 +17°C° 0.1 mm 2 m/s 691 mmHg 41%
16:00 +17°C° 0.1 mm 2 m/s 691 mmHg 41%
17:00 +16°C° 0.1 mm 2 m/s 691 mmHg 42%
18:00 +15°C° 0.3 mm 2 m/s 692 mmHg 49%
19:00 +13°C° 0.3 mm 2 m/s 692 mmHg 57%
20:00 +10°C° 0.3 mm 2 m/s 692 mmHg 64%
21:00 +9°C° 0.2 mm 2 m/s 692 mmHg 66%
22:00 +9°C° 0.2 mm 2 m/s 693 mmHg 69%
23:00 +8°C° 0.2 mm 2 m/s 693 mmHg 71%

23 Aprilie, Vineri

Timp Temperatura Precipitaţii Vânt Presiune Umiditate
00:00 +8°C° 0 mm 2 m/s 693 mmHg 71%
01:00 +7°C° 0 mm 3 m/s 693 mmHg 70%
02:00 +7°C° 0 mm 3 m/s 693 mmHg 70%
03:00 +7°C° 0 mm 3 m/s 693 mmHg 69%
04:00 +7°C° 0 mm 3 m/s 693 mmHg 68%
05:00 +5°C° 0 mm 3 m/s 693 mmHg 68%
06:00 +8°C° 0 mm 3 m/s 693 mmHg 62%
07:00 +10°C° 0 mm 2 m/s 693 mmHg 56%
08:00 +13°C° 0 mm 2 m/s 693 mmHg 50%
09:00 +15°C° 0 mm 2 m/s 693 mmHg 45%
10:00 +18°C° 0 mm 1 m/s 693 mmHg 39%
11:00 +19°C° 0 mm 1 m/s 693 mmHg 34%
12:00 +20°C° 0 mm 1 m/s 693 mmHg 32%
13:00 +20°C° 0 mm 1 m/s 692 mmHg 30%
14:00 +21°C° 0 mm 1 m/s 692 mmHg 28%
15:00 +21°C° 0 mm 1 m/s 692 mmHg 29%
16:00 +20°C° 0 mm 1 m/s 692 mmHg 30%
17:00 +20°C° 0 mm 1 m/s 692 mmHg 31%
18:00 +17°C° 0 mm 2 m/s 692 mmHg 38%
19:00 +15°C° 0 mm 2 m/s 692 mmHg 44%
20:00 +12°C° 0 mm 3 m/s 692 mmHg 51%
21:00 +11°C° 0 mm 3 m/s 692 mmHg 51%
22:00 +10°C° 0 mm 3 m/s 692 mmHg 51%
23:00 +10°C° 0 mm 3 m/s 692 mmHg 52%

24 Aprilie, Sâmbătă

Timp Temperatura Precipitaţii Vânt Presiune Umiditate
00:00 +9°C° 0 mm 3 m/s 691 mmHg 51%
01:00 +9°C° 0 mm 3 m/s 691 mmHg 50%
02:00 +9°C° 0 mm 3 m/s 691 mmHg 49%
03:00 +8°C° 0 mm 3 m/s 691 mmHg 48%
04:00 +8°C° 0 mm 3 m/s 691 mmHg 47%
05:00 +8°C° 0 mm 3 m/s 691 mmHg 46%
06:00 +10°C° 0 mm 3 m/s 691 mmHg 43%
07:00 +12°C° 0 mm 3 m/s 691 mmHg 41%
08:00 +14°C° 0 mm 3 m/s 691 mmHg 38%
09:00 +17°C° 0 mm 2 m/s 691 mmHg 33%
10:00 +19°C° 0 mm 2 m/s 691 mmHg 29%
11:00 +21°C° 0 mm 2 m/s 691 mmHg 24%
12:00 +23°C° 0 mm 1 m/s 691 mmHg 23%
13:00 +24°C° 0 mm 1 m/s 690 mmHg 22%
14:00 +24°C° 0 mm 1 m/s 690 mmHg 21%
15:00 +24°C° 0 mm 1 m/s 690 mmHg 25%
16:00 +23°C° 0 mm 1 m/s 690 mmHg 29%
17:00 +23°C° 0 mm 1 m/s 690 mmHg 33%
18:00 +20°C° 0 mm 2 m/s 690 mmHg 36%
19:00 +17°C° 0 mm 2 m/s 690 mmHg 39%
20:00 +14°C° 0 mm 3 m/s 690 mmHg 43%
21:00 +14°C° 0 mm 3 m/s 690 mmHg 42%
22:00 +13°C° 0 mm 3 m/s 690 mmHg 42%
23:00 +13°C° 0 mm 3 m/s 690 mmHg 41%

25 Aprilie, Duminică

Timp Temperatura Precipitaţii Vânt Presiune Umiditate
00:00 +13°C° 0 mm 3 m/s 690 mmHg 41%
01:00 +13°C° 0 mm 3 m/s 689 mmHg 41%
02:00 +13°C° 0 mm 3 m/s 689 mmHg 41%
03:00 +13°C° 0 mm 3 m/s 690 mmHg 41%
04:00 +13°C° 0 mm 3 m/s 690 mmHg 41%
05:00 +13°C° 0 mm 3 m/s 690 mmHg 41%
06:00 +14°C° 0 mm 3 m/s 690 mmHg 41%
07:00 +17°C° 0 mm 2 m/s 691 mmHg 42%
08:00 +18°C° 0 mm 2 m/s 691 mmHg 43%
09:00 +20°C° 0 mm 2 m/s 691 mmHg 37%
10:00 +23°C° 0 mm 1 m/s 692 mmHg 30%
11:00 +25°C° 0 mm 1 m/s 692 mmHg 24%
12:00 +25°C° 0 mm 1 m/s 692 mmHg 23%
13:00 +26°C° 0 mm 2 m/s 691 mmHg 23%
14:00 +26°C° 0 mm 2 m/s 691 mmHg 22%
15:00 +26°C° 0 mm 2 m/s 691 mmHg 24%
16:00 +26°C° 0 mm 2 m/s 691 mmHg 25%
17:00 +26°C° 0 mm 1 m/s 691 mmHg 27%
18:00 +23°C° 0 mm 2 m/s 691 mmHg 31%
19:00 +20°C° 0 mm 2 m/s 690 mmHg 34%
20:00 +18°C° 0 mm 3 m/s 690 mmHg 38%
21:00 +17°C° 0 mm 3 m/s 690 mmHg 40%
22:00 +16°C° 0 mm 3 m/s 690 mmHg 42%
23:00 +16°C° 0 mm 3 m/s 690 mmHg 44%
Arată mai mult

Formular de consimțământ

Meteoprog și furnizorii noștri de servicii pot stoca și accesa date personale, precum cookies, identificatori de dispozitiv sau alte tehnologii similare pe dispozitivul dumneavoastră și procesa astfel de date pentru a personaliza conținutul și reclamele, dar și pentru a oferi caracteristici de social media și pentru a analiza traficul.

  • Stocarea și/sau accesarea informațiilor pe dispozitivul dumneavoastră

    Cookies, identificatori de dispozitiv sau alte informații pot fi stocate sau accesate pe dispozitiv în scopurile indicate mai sus.

  • Reclame și conținut personalizat, evaluarea reclamelor și a conținutului, informații despre audiențe și dezvoltarea produselor

    Reclamele și conținutul pot fi personalizate pe baza unui profil. Pot fi adăugate date suplimentare pentru a personaliza mai bine reclamele și conținutul. Performanța reclamelor și conținutului poate fi măsurată. Pot fi obținute informații despre utilizatorii care au văzut reclamele și conținutul. Aceste date pot fi utilizate pentru a dezvolta sau îmbunătăți experiența utilizatorilor, sistemele și software-ul.

Dând clic pe ‘Sunt de acord’, permiteți utilizarea cookie-urilor menționate, a identificatorilor de dispozitiv, balizelor web sau altor tehnologii similare. Setările pot fi modificate din browser-ul dispozitivului dumneavoastră.

În anumite scopuri, interesele legitime pot prima asupra consimțământului. Puteți citi mai multe informații în acest sens în Politica privind Confidențialitatea Datelor și Cookie.